DLH69H LEAL-EDDM

Flight info

Callsign DLH69H
Flight time 1h 58m
Altitude 34000
Route MITOS N851 PTC DCT CDP DCT CHELY DCT LUMAS DCT UNANA DCT STP DCT RAPED DCT PIGOS DCT EKSID DCT NOSTA DCT NOPMU DCT TAGIP DCT GUNGO DCT IVKAL T102 NINUR T101 BETOS BETOS1B
Aircraft A321/M-SDE3FGHIRWY/LB1

Departure

Time 2026-05-03 22:22
Airport Alicante-Elche Miguel Hernández Airport (LEAL)

Arrival

Time 2026-05-04 00:20
Airport Munich Airport (EDDM)
Time Latitude Longitude Altitude Speed Heading
2026-05-03 21:59 38.28734 -0.55005 92 ft 0 kts 285°
2026-05-03 22:05 38.28730 -0.54987 91 ft 3 kts 281°
2026-05-03 22:06 38.28727 -0.54962 92 ft 3 kts 268°
2026-05-03 22:07 38.28744 -0.54918 89 ft 0 kts 189°
2026-05-03 22:09 38.28736 -0.54918 89 ft 2 kts 182°
2026-05-03 22:09 38.28718 -0.54922 87 ft 4 kts 189°
2026-05-03 22:10 38.28607 -0.54948 89 ft 11 kts 191°
2026-05-03 22:10 38.28518 -0.54970 86 ft 14 kts 190°
2026-05-03 22:10 38.28429 -0.55000 89 ft 12 kts 226°
2026-05-03 22:10 38.28418 -0.55083 89 ft 8 kts 256°
2026-05-03 22:11 38.28397 -0.55141 92 ft 6 kts 237°
2026-05-03 22:11 38.28363 -0.55203 87 ft 10 kts 235°
2026-05-03 22:11 38.28325 -0.55283 88 ft 10 kts 255°
2026-05-03 22:11 38.28331 -0.55359 90 ft 7 kts 281°
2026-05-03 22:12 38.28339 -0.55410 94 ft 5 kts 281°
2026-05-03 22:12 38.28345 -0.55450 93 ft 5 kts 280°
2026-05-03 22:12 38.28354 -0.55512 95 ft 10 kts 281°
2026-05-03 22:12 38.28372 -0.55637 98 ft 20 kts 283°
2026-05-03 22:13 38.28398 -0.55833 97 ft 22 kts 280°
2026-05-03 22:13 38.28423 -0.56011 98 ft 19 kts 279°
2026-05-03 22:13 38.28444 -0.56167 99 ft 16 kts 280°
2026-05-03 22:13 38.28461 -0.56285 103 ft 12 kts 280°
2026-05-03 22:14 38.28474 -0.56380 107 ft 10 kts 280°
2026-05-03 22:14 38.28487 -0.56466 111 ft 10 kts 280°
2026-05-03 22:14 38.28501 -0.56566 114 ft 15 kts 279°
2026-05-03 22:14 38.28523 -0.56723 121 ft 21 kts 280°
2026-05-03 22:15 38.28546 -0.56892 127 ft 17 kts 279°
2026-05-03 22:15 38.28564 -0.57026 135 ft 14 kts 280°
2026-05-03 22:15 38.28580 -0.57131 139 ft 11 kts 280°
2026-05-03 22:15 38.28591 -0.57210 143 ft 7 kts 281°
2026-05-03 22:16 38.28599 -0.57261 145 ft 6 kts 280°
2026-05-03 22:16 38.28607 -0.57326 148 ft 9 kts 279°
2026-05-03 22:16 38.28638 -0.57412 152 ft 13 kts 307°
2026-05-03 22:16 38.28663 -0.57524 157 ft 14 kts 275°
2026-05-03 22:17 38.28629 -0.57585 157 ft 0 kts 189°
2026-05-03 22:19 38.28628 -0.57585 157 ft 1 kts 189°
2026-05-03 22:19 38.28605 -0.57590 156 ft 6 kts 190°
2026-05-03 22:20 38.28548 -0.57602 155 ft 11 kts 185°
2026-05-03 22:20 38.28486 -0.57546 153 ft 9 kts 131°
2026-05-03 22:20 38.28450 -0.57482 153 ft 9 kts 105°
2026-05-03 22:20 38.28446 -0.57458 153 ft 2 kts 100°
2026-05-03 22:21 38.28441 -0.57419 152 ft 8 kts 100°
2026-05-03 22:21 38.28405 -0.57162 144 ft 63 kts 100°
2026-05-03 22:21 38.28287 -0.56314 118 ft 130 kts 99°
2026-05-03 22:21 38.28098 -0.54937 89 ft 181 kts 99°
2026-05-03 22:22 38.27875 -0.53401 808 ft 172 kts 100°
2026-05-03 22:22 38.27651 -0.51933 1620 ft 167 kts 102°
2026-05-03 22:22 38.27424 -0.50521 2308 ft 159 kts 101°
2026-05-03 22:22 38.27568 -0.49114 2750 ft 167 kts 64°
2026-05-03 22:23 38.28289 -0.47940 3245 ft 170 kts 51°
2026-05-03 22:23 38.29019 -0.46693 3567 ft 184 kts 57°
2026-05-03 22:23 38.29743 -0.45251 3781 ft 205 kts 59°
2026-05-03 22:23 38.30503 -0.43702 3947 ft 226 kts 59°
2026-05-03 22:24 38.31389 -0.41915 4084 ft 248 kts 58°
2026-05-03 22:24 38.32349 -0.39979 4327 ft 267 kts 61°
2026-05-03 22:24 38.33086 -0.37767 4922 ft 273 kts 69°
2026-05-03 22:24 38.33774 -0.35485 5558 ft 278 kts 69°
2026-05-03 22:25 38.34479 -0.33177 6207 ft 282 kts 69°
2026-05-03 22:25 38.35202 -0.30833 6803 ft 287 kts 69°
2026-05-03 22:25 38.35939 -0.28448 7386 ft 292 kts 69°
2026-05-03 22:25 38.36707 -0.26026 7982 ft 296 kts 68°
2026-05-03 22:26 38.37516 -0.23586 8569 ft 301 kts 67°
2026-05-03 22:26 38.38349 -0.21115 9155 ft 306 kts 67°
2026-05-03 22:26 38.39198 -0.18605 9752 ft 311 kts 67°
2026-05-03 22:26 38.40058 -0.16056 10245 ft 318 kts 67°
2026-05-03 22:27 38.40959 -0.13372 10365 ft 339 kts 67°
2026-05-03 22:27 38.41912 -0.10518 10491 ft 359 kts 67°
2026-05-03 22:27 38.42911 -0.07509 10614 ft 377 kts 68°
2026-05-03 22:27 38.43945 -0.04383 10736 ft 394 kts 68°
2026-05-03 22:28 38.45022 -0.01114 10847 ft 409 kts 68°
2026-05-03 22:28 38.46140 0.02301 10997 ft 423 kts 68°
2026-05-03 22:28 38.47274 0.05810 11345 ft 429 kts 68°
2026-05-03 22:28 38.48410 0.09353 11760 ft 433 kts 68°
2026-05-03 22:29 38.49549 0.12922 12173 ft 438 kts 68°
2026-05-03 22:29 38.50704 0.16541 12576 ft 442 kts 68°
2026-05-03 22:29 38.51868 0.20190 12988 ft 446 kts 68°
2026-05-03 22:29 38.53040 0.23860 13406 ft 450 kts 68°
2026-05-03 22:30 38.54235 0.27595 13816 ft 453 kts 68°
2026-05-03 22:30 38.55431 0.31330 14192 ft 457 kts 68°
2026-05-03 22:30 38.56624 0.35073 14584 ft 459 kts 68°
2026-05-03 22:30 38.57841 0.38899 14982 ft 462 kts 68°
2026-05-03 22:31 38.59037 0.42669 15375 ft 464 kts 68°
2026-05-03 22:31 38.60269 0.46550 15786 ft 467 kts 68°
2026-05-03 22:31 38.61475 0.50353 16172 ft 469 kts 68°
2026-05-03 22:31 38.62704 0.54239 16563 ft 472 kts 68°
2026-05-03 22:32 38.63938 0.58140 16959 ft 474 kts 68°
2026-05-03 22:32 38.65178 0.62062 17339 ft 477 kts 68°
2026-05-03 22:32 38.66424 0.66005 17716 ft 479 kts 68°
2026-05-03 22:32 38.67680 0.69976 18087 ft 482 kts 68°
2026-05-03 22:33 38.68935 0.73950 18436 ft 484 kts 68°
2026-05-03 22:33 38.70197 0.77965 18753 ft 486 kts 68°
2026-05-03 22:33 38.71455 0.81983 19072 ft 488 kts 68°
2026-05-03 22:33 38.72719 0.86038 19397 ft 490 kts 68°
2026-05-03 22:34 38.73987 0.90116 19720 ft 492 kts 68°
2026-05-03 22:34 38.75253 0.94196 20057 ft 494 kts 68°
2026-05-03 22:34 38.76510 0.98255 20372 ft 496 kts 68°
2026-05-03 22:34 38.77785 1.02374 20700 ft 498 kts 68°
2026-05-03 22:35 38.79063 1.06502 21023 ft 500 kts 68°
2026-05-03 22:35 38.80351 1.10659 21342 ft 502 kts 68°
2026-05-03 22:35 38.81644 1.14831 21653 ft 504 kts 68°
2026-05-03 22:35 38.82939 1.19015 21953 ft 506 kts 68°
2026-05-03 22:36 38.84237 1.23215 22254 ft 507 kts 68°
2026-05-03 22:36 38.85534 1.27426 22557 ft 509 kts 69°
2026-05-03 22:36 38.86833 1.31658 22818 ft 511 kts 68°
2026-05-03 22:36 38.88137 1.35899 23066 ft 512 kts 68°
2026-05-03 22:37 38.89443 1.40161 23322 ft 514 kts 69°
2026-05-03 22:37 38.90751 1.44444 23557 ft 515 kts 69°
2026-05-03 22:37 38.92057 1.48729 23746 ft 517 kts 69°
2026-05-03 22:37 38.93352 1.53036 23938 ft 517 kts 69°
2026-05-03 22:38 38.94630 1.57348 24189 ft 516 kts 69°
2026-05-03 22:38 38.95888 1.61645 24432 ft 516 kts 69°
2026-05-03 22:38 38.97142 1.65955 24671 ft 516 kts 69°
2026-05-03 22:38 38.98400 1.70281 24912 ft 516 kts 69°
2026-05-03 22:39 38.99656 1.74585 25154 ft 516 kts 69°
2026-05-03 22:39 39.00921 1.78912 25408 ft 515 kts 69°
2026-05-03 22:39 39.02180 1.83207 25666 ft 515 kts 69°
2026-05-03 22:39 39.03445 1.87521 25915 ft 515 kts 69°
2026-05-03 22:40 39.04705 1.91831 26177 ft 514 kts 69°
2026-05-03 22:40 39.05957 1.96129 26442 ft 514 kts 69°
2026-05-03 22:40 39.07208 2.00432 26707 ft 513 kts 69°
2026-05-03 22:40 39.08460 2.04748 26973 ft 513 kts 69°
2026-05-03 22:41 39.09699 2.09041 27238 ft 512 kts 69°
2026-05-03 22:41 39.10940 2.13346 27508 ft 512 kts 69°
2026-05-03 22:41 39.12180 2.17643 27782 ft 511 kts 69°
2026-05-03 22:41 39.13418 2.21931 28053 ft 511 kts 69°
2026-05-03 22:42 39.14656 2.26212 28321 ft 510 kts 69°
2026-05-03 22:42 39.15891 2.30495 28590 ft 510 kts 69°
2026-05-03 22:42 39.17124 2.34786 28862 ft 509 kts 69°
2026-05-03 22:42 39.18334 2.39007 29133 ft 509 kts 69°
2026-05-03 22:43 39.19558 2.43288 29401 ft 508 kts 69°
2026-05-03 22:43 39.21018 2.47419 29650 ft 506 kts 57°
2026-05-03 22:43 39.23145 2.50976 29904 ft 501 kts 42°
2026-05-03 22:43 39.25835 2.53827 30126 ft 496 kts 33°
2026-05-03 22:44 39.28630 2.56451 30343 ft 496 kts 33°
2026-05-03 22:44 39.31419 2.59070 30566 ft 496 kts 33°
2026-05-03 22:44 39.34203 2.61697 30781 ft 496 kts 33°
2026-05-03 22:44 39.36983 2.64330 30994 ft 496 kts 33°
2026-05-03 22:45 39.39765 2.66974 31215 ft 495 kts 33°
2026-05-03 22:45 39.42538 2.69618 31424 ft 495 kts 33°
2026-05-03 22:45 39.45321 2.72268 31641 ft 495 kts 33°
2026-05-03 22:45 39.48084 2.74898 31857 ft 495 kts 33°
2026-05-03 22:46 39.50855 2.77539 32087 ft 494 kts 33°
2026-05-03 22:46 39.53591 2.80151 32295 ft 494 kts 33°
2026-05-03 22:46 39.56356 2.82796 32520 ft 494 kts 33°
2026-05-03 22:46 39.59122 2.85442 32735 ft 493 kts 33°
2026-05-03 22:47 39.61882 2.88084 32935 ft 493 kts 33°
2026-05-03 22:47 39.64639 2.90723 33149 ft 493 kts 33°
2026-05-03 22:47 39.66488 2.92494 33289 ft 492 kts 33°
2026-05-03 22:47 39.70159 2.96017 33567 ft 492 kts 33°
2026-05-03 22:48 39.72014 2.97800 33698 ft 492 kts 33°
2026-05-03 22:48 39.74761 3.00439 33921 ft 491 kts 32°
2026-05-03 22:48 39.77476 3.03050 34012 ft 493 kts 32°
2026-05-03 22:49 39.83014 3.08386 34025 ft 497 kts 33°
2026-05-03 22:49 39.88579 3.13766 34031 ft 497 kts 33°
2026-05-03 22:50 39.94128 3.19137 34030 ft 497 kts 33°
2026-05-03 22:50 39.99662 3.24510 34024 ft 496 kts 33°
2026-05-03 22:51 40.05203 3.29894 34030 ft 496 kts 33°
2026-05-03 22:51 40.10728 3.35274 34036 ft 496 kts 34°
2026-05-03 22:52 40.16264 3.40670 34045 ft 497 kts 34°
2026-05-03 22:52 40.21794 3.46073 34045 ft 496 kts 34°
2026-05-03 22:53 40.27336 3.51515 34050 ft 496 kts 34°
2026-05-03 22:53 40.32832 3.56918 34050 ft 496 kts 34°
2026-05-03 22:54 40.38367 3.62365 34048 ft 496 kts 34°
2026-05-03 22:54 40.43880 3.67806 34048 ft 496 kts 34°
2026-05-03 22:55 40.49401 3.73260 34048 ft 496 kts 35°
2026-05-03 22:55 40.54861 3.78668 34050 ft 496 kts 35°
2026-05-03 22:56 40.60371 3.84135 34051 ft 496 kts 35°
2026-05-03 22:56 40.65880 3.89607 34051 ft 495 kts 35°
2026-05-03 22:57 40.71378 3.95095 34046 ft 495 kts 35°
2026-05-03 22:57 40.76881 4.00599 34049 ft 495 kts 35°
2026-05-03 22:58 40.82335 4.06059 34048 ft 495 kts 35°
2026-05-03 22:58 40.87813 4.11548 34046 ft 495 kts 35°
2026-05-03 22:59 40.93315 4.17078 34053 ft 495 kts 35°
2026-05-03 22:59 40.98770 4.22581 34051 ft 495 kts 36°
2026-05-03 23:00 41.04252 4.28122 34051 ft 495 kts 36°
2026-05-03 23:00 41.09727 4.33660 34055 ft 495 kts 36°
2026-05-03 23:01 41.15204 4.39210 34056 ft 495 kts 36°
2026-05-03 23:01 41.20671 4.44763 34059 ft 494 kts 36°
2026-05-03 23:02 41.26121 4.50314 34059 ft 494 kts 36°
2026-05-03 23:02 41.31547 4.55857 34056 ft 494 kts 36°
2026-05-03 23:03 41.37029 4.61470 34059 ft 493 kts 36°
2026-05-03 23:03 41.42432 4.66991 34062 ft 493 kts 36°
2026-05-03 23:04 41.47876 4.72561 34064 ft 493 kts 36°
2026-05-03 23:04 41.53307 4.78157 34062 ft 493 kts 36°
2026-05-03 23:05 41.58723 4.83762 34055 ft 493 kts 36°
2026-05-03 23:05 41.64144 4.89375 34064 ft 492 kts 36°
2026-05-03 23:06 41.69529 4.94959 34079 ft 491 kts 36°
2026-05-03 23:06 41.74924 5.00565 34079 ft 491 kts 36°
2026-05-03 23:07 41.80316 5.06168 34082 ft 490 kts 36°
2026-05-03 23:07 41.85716 5.11780 34081 ft 490 kts 36°
2026-05-03 23:08 41.91057 5.17362 34070 ft 490 kts 36°
2026-05-03 23:08 41.96456 5.23026 34086 ft 490 kts 36°
2026-05-03 23:09 42.01806 5.28657 34084 ft 490 kts 36°
2026-05-03 23:09 42.07191 5.34312 34092 ft 489 kts 36°
2026-05-03 23:10 42.12555 5.39964 34099 ft 489 kts 36°
2026-05-03 23:10 42.17906 5.45631 34109 ft 489 kts 36°
2026-05-03 23:11 42.23212 5.51264 34107 ft 488 kts 36°
2026-05-03 23:11 42.28546 5.56926 34108 ft 488 kts 36°
2026-05-03 23:12 42.33890 5.62603 34117 ft 487 kts 36°
2026-05-03 23:12 42.39208 5.68263 34117 ft 486 kts 36°
2026-05-03 23:13 42.44512 5.73938 34125 ft 486 kts 37°
2026-05-03 23:13 42.49813 5.79613 34127 ft 486 kts 36°
2026-05-03 23:14 42.55115 5.85300 34124 ft 485 kts 37°
2026-05-03 23:14 42.60396 5.90994 34119 ft 485 kts 37°
2026-05-03 23:15 42.65658 5.96670 34124 ft 485 kts 37°
2026-05-03 23:15 42.70942 6.02370 34126 ft 485 kts 37°
2026-05-03 23:16 42.76237 6.08106 34125 ft 485 kts 37°
2026-05-03 23:16 42.81512 6.13837 34126 ft 485 kts 37°
2026-05-03 23:17 42.86789 6.19598 34129 ft 485 kts 37°
2026-05-03 23:17 42.91978 6.25480 34133 ft 485 kts 38°
2026-05-03 23:18 42.97113 6.31451 34134 ft 485 kts 38°
2026-05-03 23:18 43.02207 6.37358 34131 ft 485 kts 38°
2026-05-03 23:19 43.07352 6.43285 34138 ft 484 kts 38°
2026-05-03 23:19 43.12506 6.49231 34138 ft 484 kts 38°
2026-05-03 23:20 43.17648 6.55184 34153 ft 484 kts 38°
2026-05-03 23:20 43.22567 6.61467 34155 ft 486 kts 49°
2026-05-03 23:21 43.26592 6.68924 34151 ft 486 kts 52°
2026-05-03 23:21 43.30553 6.76456 34155 ft 486 kts 53°
2026-05-03 23:22 43.35194 6.85275 34161 ft 486 kts 52°
2026-05-03 23:22 43.39248 6.92976 34161 ft 486 kts 53°
2026-05-03 23:23 43.43203 7.00516 34158 ft 486 kts 53°
2026-05-03 23:23 43.47136 7.08054 34165 ft 485 kts 53°
2026-05-03 23:24 43.51085 7.15627 34149 ft 485 kts 53°
2026-05-03 23:24 43.54990 7.23134 34155 ft 485 kts 53°
2026-05-03 23:25 43.58921 7.30710 34155 ft 484 kts 53°
2026-05-03 23:25 43.62845 7.38294 34156 ft 484 kts 53°
2026-05-03 23:26 43.66745 7.45856 34155 ft 484 kts 53°
2026-05-03 23:26 43.70628 7.53405 34155 ft 484 kts 53°
2026-05-03 23:27 43.74524 7.61003 34205 ft 486 kts 55°
2026-05-03 23:27 43.78452 7.68682 34111 ft 488 kts 55°
2026-05-03 23:28 43.82696 7.76041 34113 ft 489 kts 43°
2026-05-03 23:28 43.87941 7.81960 34113 ft 490 kts 36°
2026-05-03 23:29 43.93346 7.87755 34128 ft 491 kts 37°
2026-05-03 23:29 43.98404 7.94062 34138 ft 491 kts 43°
2026-05-03 23:30 44.03315 8.00675 34148 ft 492 kts 43°
2026-05-03 23:30 44.08227 8.07283 34155 ft 491 kts 43°
2026-05-03 23:31 44.13146 8.13903 34162 ft 491 kts 43°
2026-05-03 23:31 44.17224 8.19411 34160 ft 491 kts 43°
2026-05-03 23:32 44.22115 8.26046 34166 ft 490 kts 43°
2026-05-03 23:32 44.26998 8.32685 34161 ft 490 kts 43°
2026-05-03 23:33 44.31869 8.39326 34160 ft 489 kts 43°
2026-05-03 23:33 44.36737 8.45967 34160 ft 489 kts 43°
2026-05-03 23:34 44.41579 8.52596 34157 ft 489 kts 43°
2026-05-03 23:34 44.46448 8.59277 34154 ft 489 kts 43°
2026-05-03 23:35 44.51315 8.65967 34153 ft 490 kts 43°
2026-05-03 23:35 44.56170 8.72652 34152 ft 490 kts 43°
2026-05-03 23:36 44.60990 8.79306 34152 ft 490 kts 43°
2026-05-03 23:36 44.65868 8.86070 34155 ft 490 kts 43°
2026-05-03 23:37 44.70712 8.92809 34150 ft 490 kts 43°
2026-05-03 23:37 44.75553 8.99561 34150 ft 490 kts 43°
2026-05-03 23:38 44.80394 9.06305 34145 ft 490 kts 43°
2026-05-03 23:38 44.85228 9.13053 34143 ft 490 kts 43°
2026-05-03 23:39 44.90053 9.19818 34144 ft 490 kts 43°
2026-05-03 23:39 44.94858 9.26589 34139 ft 490 kts 43°
2026-05-03 23:40 44.99698 9.33409 34137 ft 490 kts 43°
2026-05-03 23:40 45.04524 9.40230 34131 ft 490 kts 43°
2026-05-03 23:41 45.09338 9.47055 34128 ft 490 kts 43°
2026-05-03 23:41 45.14147 9.53887 34124 ft 490 kts 43°
2026-05-03 23:42 45.18955 9.60737 34122 ft 490 kts 43°
2026-05-03 23:42 45.23746 9.67588 34127 ft 489 kts 43°
2026-05-03 23:43 45.28545 9.74457 34133 ft 489 kts 43°
2026-05-03 23:43 45.33311 9.81280 34133 ft 488 kts 43°
2026-05-03 23:44 45.38101 9.88177 34113 ft 488 kts 43°
2026-05-03 23:44 45.42868 9.95058 34108 ft 487 kts 43°
2026-05-03 23:45 45.47621 10.01926 34107 ft 487 kts 43°
2026-05-03 23:45 45.52363 10.08803 34110 ft 486 kts 44°
2026-05-03 23:46 45.57076 10.15662 34112 ft 485 kts 44°
2026-05-03 23:46 45.61806 10.22556 34116 ft 485 kts 44°
2026-05-03 23:47 45.66512 10.29436 34122 ft 484 kts 44°
2026-05-03 23:47 45.71219 10.36319 34140 ft 483 kts 44°
2026-05-03 23:48 45.75921 10.43217 34147 ft 483 kts 44°
2026-05-03 23:48 45.80575 10.50069 34155 ft 483 kts 44°
2026-05-03 23:49 45.85259 10.56984 34163 ft 483 kts 44°
2026-05-03 23:49 45.89929 10.63888 34174 ft 482 kts 44°
2026-05-03 23:50 45.94064 10.69231 34179 ft 479 kts 33°
2026-05-03 23:50 46.00794 10.74705 34190 ft 475 kts 25°
2026-05-03 23:51 46.06638 10.79185 34202 ft 475 kts 26°
2026-05-03 23:51 46.12465 10.83685 34223 ft 475 kts 26°
2026-05-03 23:52 46.18287 10.88187 34239 ft 474 kts 26°
2026-05-03 23:52 46.24090 10.92674 34253 ft 473 kts 26°
2026-05-03 23:53 46.29871 10.97157 34267 ft 473 kts 26°
2026-05-03 23:53 46.35661 11.01674 34268 ft 473 kts 26°
2026-05-03 23:54 46.41717 11.05215 34259 ft 468 kts 10°
2026-05-03 23:54 46.48137 11.06012 34237 ft 462 kts 354°
2026-05-03 23:55 46.54549 11.05524 34226 ft 462 kts 354°
2026-05-03 23:55 46.60994 11.05068 34210 ft 463 kts 354°
2026-05-03 23:56 46.67383 11.04618 34192 ft 464 kts 355°
2026-05-03 23:56 46.73832 11.04148 34196 ft 464 kts 355°
2026-05-03 23:57 46.80289 11.03642 34186 ft 464 kts 353°
2026-05-03 23:57 46.86706 11.02618 34173 ft 463 kts 349°
2026-05-03 23:58 46.93096 11.01269 34167 ft 464 kts 352°
2026-05-03 23:58 46.99536 11.01563 34158 ft 468 kts
2026-05-03 23:59 47.06014 11.02575 34138 ft 469 kts
2026-05-03 23:59 47.12523 11.03609 34114 ft 469 kts
2026-05-04 00:00 47.19024 11.04602 34099 ft 470 kts
2026-05-04 00:00 47.25531 11.05579 34094 ft 470 kts
2026-05-04 00:01 47.31505 11.06474 34096 ft 471 kts
2026-05-04 00:01 47.38037 11.07478 33898 ft 471 kts
2026-05-04 00:02 47.41286 11.07985 33623 ft 471 kts
2026-05-04 00:02 47.44522 11.08487 32928 ft 472 kts
2026-05-04 00:02 47.47840 11.09000 32026 ft 474 kts
2026-05-04 00:02 47.51087 11.09504 31120 ft 477 kts
2026-05-04 00:03 47.54386 11.10241 30172 ft 482 kts 11°
2026-05-04 00:03 47.57634 11.11698 29096 ft 487 kts 20°
2026-05-04 00:03 47.60700 11.13855 28088 ft 489 kts 29°
2026-05-04 00:03 47.63642 11.16413 27025 ft 490 kts 29°
2026-05-04 00:04 47.66586 11.18974 25885 ft 492 kts 29°
2026-05-04 00:04 47.69540 11.21543 24768 ft 494 kts 29°
2026-05-04 00:04 47.72511 11.24100 23767 ft 492 kts 27°
2026-05-04 00:04 47.75621 11.26186 22785 ft 486 kts 19°
2026-05-04 00:05 47.78765 11.27902 21987 ft 477 kts 19°
2026-05-04 00:05 47.81840 11.29606 21154 ft 471 kts 19°
2026-05-04 00:05 47.84878 11.31307 20354 ft 466 kts 19°
2026-05-04 00:05 47.87969 11.32837 19556 ft 460 kts 13°
2026-05-04 00:06 47.91064 11.33644 18750 ft 455 kts
2026-05-04 00:06 47.94201 11.33925 17868 ft 450 kts
2026-05-04 00:06 47.97316 11.34179 17063 ft 444 kts
2026-05-04 00:06 48.00376 11.34635 16247 ft 439 kts 10°
2026-05-04 00:07 48.03266 11.36005 15482 ft 436 kts 24°
2026-05-04 00:07 48.05872 11.38265 14722 ft 432 kts 37°
2026-05-04 00:07 48.08075 11.41282 14027 ft 427 kts 49°
2026-05-04 00:07 48.09782 11.44871 13297 ft 420 kts 62°
2026-05-04 00:08 48.11031 11.48769 12652 ft 412 kts 67°
2026-05-04 00:08 48.12202 11.52590 12008 ft 406 kts 67°
2026-05-04 00:08 48.13384 11.56445 11430 ft 398 kts 67°
2026-05-04 00:08 48.14512 11.60124 11279 ft 378 kts 67°
2026-05-04 00:09 48.15583 11.63618 11127 ft 360 kts 67°
2026-05-04 00:09 48.16603 11.66954 10995 ft 344 kts 67°
2026-05-04 00:09 48.17577 11.70155 10870 ft 329 kts 68°
2026-05-04 00:09 48.18495 11.73176 10748 ft 316 kts 68°
2026-05-04 00:10 48.19389 11.76127 10563 ft 306 kts 68°
2026-05-04 00:10 48.20261 11.79013 10232 ft 302 kts 68°
2026-05-04 00:10 48.21127 11.81877 9873 ft 300 kts 68°
2026-05-04 00:10 48.21987 11.84718 9481 ft 298 kts 68°
2026-05-04 00:11 48.22840 11.87547 9098 ft 296 kts 68°
2026-05-04 00:11 48.23682 11.90340 8721 ft 294 kts 68°
2026-05-04 00:11 48.24520 11.93123 8476 ft 293 kts 68°
2026-05-04 00:11 48.25348 11.95884 8233 ft 292 kts 67°
2026-05-04 00:12 48.26178 11.98650 7980 ft 291 kts 67°
2026-05-04 00:12 48.27015 12.01433 7683 ft 290 kts 67°
2026-05-04 00:12 48.27839 12.04177 7327 ft 288 kts 67°
2026-05-04 00:12 48.28661 12.06919 6965 ft 286 kts 66°
2026-05-04 00:13 48.29475 12.09641 6598 ft 286 kts 66°
2026-05-04 00:13 48.30288 12.12356 6239 ft 284 kts 66°
2026-05-04 00:13 48.30830 12.14169 6097 ft 278 kts 65°
2026-05-04 00:13 48.31896 12.16483 5972 ft 264 kts 36°
2026-05-04 00:14 48.34065 12.17491 5776 ft 243 kts 351°
2026-05-04 00:14 48.35612 12.16662 5488 ft 233 kts 320°
2026-05-04 00:14 48.36622 12.14847 5151 ft 226 kts 291°
2026-05-04 00:14 48.36887 12.13346 4907 ft 224 kts 272°
2026-05-04 00:15 48.36716 12.10270 4663 ft 223 kts 264°
2026-05-04 00:15 48.36599 12.08719 4591 ft 215 kts 263°
2026-05-04 00:15 48.36438 12.06569 4454 ft 203 kts 263°
2026-05-04 00:15 48.36289 12.04557 4340 ft 190 kts 264°
2026-05-04 00:16 48.36141 12.02559 4257 ft 186 kts 265°
2026-05-04 00:16 48.36001 12.00681 4086 ft 174 kts 265°
2026-05-04 00:16 48.35872 11.98950 3890 ft 165 kts 266°
2026-05-04 00:16 48.35746 11.97259 3683 ft 158 kts 267°
2026-05-04 00:17 48.35624 11.95640 3479 ft 153 kts 268°
2026-05-04 00:17 48.35507 11.94069 3283 ft 150 kts 269°
2026-05-04 00:17 48.35391 11.92521 3086 ft 150 kts 269°
2026-05-04 00:17 48.35274 11.90965 2886 ft 149 kts 270°
2026-05-04 00:18 48.35158 11.89435 2690 ft 148 kts 270°
2026-05-04 00:18 48.35044 11.87918 2496 ft 147 kts 270°
2026-05-04 00:18 48.34927 11.86381 2291 ft 147 kts 266°
2026-05-04 00:18 48.34811 11.84844 2095 ft 148 kts 265°
2026-05-04 00:19 48.34692 11.83300 1873 ft 148 kts 264°
2026-05-04 00:19 48.34581 11.81778 1689 ft 147 kts 264°
2026-05-04 00:19 48.34463 11.80251 1504 ft 147 kts 264°
2026-05-04 00:19 48.34359 11.78887 1481 ft 111 kts 263°
2026-05-04 00:20 48.34290 11.77994 1478 ft 61 kts 263°
2026-05-04 00:20 48.34254 11.77506 1485 ft 40 kts 264°
2026-05-04 00:20 48.34270 11.77226 1477 ft 20 kts 289°
2026-05-04 00:20 48.34312 11.77075 1482 ft 14 kts 293°
2026-05-04 00:21 48.34352 11.76936 1473 ft 15 kts 293°
2026-05-04 00:21 48.34395 11.76786 1475 ft 16 kts 294°
2026-05-04 00:21 48.34486 11.76700 1485 ft 17 kts 352°
2026-05-04 00:21 48.34554 11.76696 1485 ft 10 kts 14°
2026-05-04 00:22 48.34576 11.76756 1485 ft 6 kts 88°
2026-05-04 00:22 48.34581 11.76845 1473 ft 11 kts 84°
2026-05-04 00:22 48.34591 11.76975 1483 ft 14 kts 82°
2026-05-04 00:22 48.34606 11.77143 1485 ft 18 kts 84°
2026-05-04 00:23 48.34619 11.77323 1485 ft 15 kts 83°
2026-05-04 00:23 48.34632 11.77484 1483 ft 16 kts 83°
2026-05-04 00:23 48.34645 11.77655 1482 ft 17 kts 83°
2026-05-04 00:23 48.34659 11.77842 1485 ft 18 kts 84°
2026-05-04 00:24 48.34672 11.78018 1485 ft 16 kts 83°
2026-05-04 00:24 48.34684 11.78171 1474 ft 13 kts 83°
2026-05-04 00:24 48.34694 11.78299 1485 ft 11 kts 83°
2026-05-04 00:24 48.34702 11.78405 1482 ft 9 kts 83°
2026-05-04 00:25 48.34709 11.78495 1485 ft 8 kts 83°
2026-05-04 00:25 48.34716 11.78591 1485 ft 13 kts 84°
2026-05-04 00:25 48.34729 11.78761 1482 ft 20 kts 83°
2026-05-04 00:25 48.34747 11.78982 1485 ft 21 kts 84°
2026-05-04 00:26 48.34761 11.79182 1485 ft 18 kts 83°
2026-05-04 00:26 48.34773 11.79357 1477 ft 16 kts 83°
2026-05-04 00:26 48.34785 11.79504 1478 ft 12 kts 83°
2026-05-04 00:26 48.34833 11.79561 1485 ft 9 kts 359°
2026-05-04 00:27 48.34884 11.79553 1475 ft 6 kts 353°
2026-05-04 00:27 48.34923 11.79547 1475 ft 5 kts 354°
2026-05-04 00:27 48.34965 11.79539 1485 ft 7 kts 353°
2026-05-04 00:27 48.35014 11.79531 1485 ft 8 kts 353°
2026-05-04 00:28 48.35068 11.79522 1484 ft 8 kts 353°
2026-05-04 00:28 48.35133 11.79511 1481 ft 10 kts 353°
2026-05-04 00:28 48.35213 11.79497 1481 ft 13 kts 353°
2026-05-04 00:28 48.35304 11.79481 1473 ft 10 kts 354°
2026-05-04 00:29 48.35380 11.79469 1485 ft 12 kts 353°
2026-05-04 00:29 48.35473 11.79453 1483 ft 14 kts 353°
2026-05-04 00:29 48.35569 11.79436 1475 ft 11 kts 354°
2026-05-04 00:29 48.35624 11.79427 1478 ft 7 kts 354°
2026-05-04 00:30 48.35669 11.79420 1485 ft 4 kts 354°
2026-05-04 00:30 48.35695 11.79416 1477 ft 0 kts 354°
2026-05-04 00:30 48.35707 11.79414 1485 ft 3 kts 354°
2026-05-04 00:30 48.35722 11.79397 1477 ft 3 kts 303°
2026-05-04 00:31 48.35722 11.79368 1485 ft 4 kts 259°
2026-05-04 00:31 48.35716 11.79311 1473 ft 6 kts 264°
2026-05-04 00:31 48.35713 11.79271 1480 ft 1 kts 264°
2026-05-04 00:31 48.35713 11.79267 1481 ft 0 kts 264°